Hlavní strana
METAR-TAF:

METAR-TAF

Letiště :

Dare County Regional Airport

Manteo, Severní Karolína, Spojené státy americké

zeměpisná šířka: 35-55N, zeměpisná délka: 075-42W, výška: 4 m

Aktuální stav počasí

Zpráva byla vytvořena před 34 minutami, v 14:35 UTC
Severovýchodní vítr 7 kt
Teplota 26°C
Vlhkost vzduchu 74%
Tlak 1012 hPa
Viditelnost: 16.1 km
Polojasno ve výšce 1800 ft

METAR: KMQI 021435Z AUTO 04007KT 10SM SCT018 26/21 A2988 RMK AO2 T02640207

Čas: 11:09 (15:09 UTC)


TAF: chybějící

Stav a předpovědi počasí z více než 4 000 letišť (zprávy METAR a TAF).

Červené a žluté tečky na mapě představují dostupné meteorologické stanice.

Když kurzor umístíte na tečku, zobrazí se název stanice.

Pak kliknutím zobrazíte stav a předpověď počasí.

Chcete-li změnit mapu, kliknutím na zelené tlačítko se znaménkem +mapu přiblížíte, kliknutím na zelené tlačítko se znaménkem – mapu oddálíte a kliknutím na zelené šipky přejdete na sousední mapy.


METAR-TAF: